SCP
0 0 0 0 0 0 0 0 0 0 0 0 0 0 0 0 0 0 0 0 0 0 0 0 0 0 0 0 0 0 0 0 0 0 0 0 0 0 0 0 0 0 0 0 0 0 0 0 0
0 0 0 0 0 0 0 0 0 0 0 0 0 0 0 0 0 0 0 0 0 0 0 0 0 0 0 0 0 0 0 0 0 0 0 0 0 0 0 0 0 0 0 0 0 0 0 0 0
0 0 0 0 0 0 0 0 0 0 0 0 0 0 0 0 0 0 0 0 0 0 0 0 0 0 0 0 0 0 0 0 0 0 0 0 0 0 0 0 0 0 0 0 0 0 0 0 0
0 0 0 0 0 0 0 0 0 0 0 0 0 0 0 0 0 0 0 0 0 0 0 0 0 0 0 0 0 0 0 0 0 0 0 0 0 0 0 0 0 0 0 0 0 0 0 0 0
0 0 0 0 0 0 0 0 0 0 0 0 0 0 0 0 0 0 0 0 0 0 0 0 0 0 0 0 0 0 0 0 0 0 0 0 0 0 0 0 0 0 0 0 0 0 0 0 0
0 0 0 0 0 0 0 0 0 0 0 0 0 0 0 0 0 0 0 0 0 0 0 0 0 0 0 0 0 0 0 0 0 0 0 0 0 0 0 0 0 0 0 0 0 0 0 0 0
0 0 0 0 0 0 0 0 0 0 0 0 0 0 0 0 0 0 0 0 0 0 0 0 0 0 0 0 0 0 0 0 0 0 0 0 0 0 0 0 0 0 0 0 0 0 0 0 0
0 0 0 0 0 0 0 0 0 0 0 0 0 0 0 0 0 0 0 0 0 0 0 0 0 0 0 0 0 0 0 0 0 0 0 0 0 0 0 0 0 0 0 0 0 0 0 0 0
0 0 0 0 0 0 0 0 0 0 0 0 0 0 0 0 0 0 0 0 0 0 0 0 0 0 0 0 0 0 0 0 0 0 0 0 0 0 0 0 0 0 0 0 0 0 0 0 0
0 0 0 0 0 0 0 0 0 0 0 0 0 0 0 0 0 0 0 0 0 0 0 0 0 0 0 0 0 0 0 0 0 0 0 0 0 0 0 0 0 0 0 0 0 0 0 0 0
0 0 0 0 0 0 0 0 0 0 0 0 0 0 0 0 0 0 0 0 0 0 0 0 0 0 0 0 0 0 0 0 0 0 0 0 0 0 0 0 0 0 0 0 0 0 0 0 0
0 0 0 0 0 0 0 0 0 0 0 0 0 0 0 0 0 0 0 0 0 0 0 0 0 0 0 0 0 0 0 0 0 0 0 0 0 0 0 0 0 0 0 0 0 0 0 0 0
0 0 0 0 0 0 0 0 0 0 0 0 0 0 0 0 0 0 0 0 0 0 0 0 0 0 0 0 0 0 0 0 0 0 0 0 0 0 0 0 0 0 0 0 0 0 0 0 0
0 0 0 0 0 0 0 0 0 0 0 0 0 0 0 0 0 0 0 0 0 0 0 0 0 0 0 0 0 0 0 0 0 0 0 0 0 0 0 0 0 0 0 0 0 0 0 0 0
0 0 0 0 0 0 0 0 0 0 0 0 0 0 0 0 0 0 0 0 0 0 0 0 0 0 0 0 0 0 0 0 0 0 0 0 0 0 0 0 0 0 0 0 0 0 0 0 0
0 0 0 0 0 0 0 0 0 0 0 0 0 0 0 0 0 0 0 0 0 0 0 0 0 0 0 0 0 0 0 0 0 0 0 0 0 0 0 0 0 0 0 0 0 0 0 0 0
0 0 0 0 0 0 0 0 0 0 0 0 0 0 0 0 0 0 0 0 0 0 0 0 0 0 0 0 0 0 0 0 0 0 0 0 0 0 0 0 0 0 0 0 0 0 0 0 0
0 0 0 0 0 0 0 0 0 0 0 0 0 0 0 0 0 0 0 0 0 0 0 0 0 0 0 0 0 0 0 0 0 0 0 0 0 0 0 0 0 0 0 0 0 0 0 0 0
0 0 0 0 0 0 0 0 0 0 0 0 0 0 0 0 0 0 0 0 0 0 0 0 0 0 0 0 0 0 0 0 0 0 0 0 0 0 0 0 0 0 0 0 0 0 0 0 0
0 0 0 0 0 0 0 0 0 0 0 0 0 0 0 0 0 0 0 0 0 0 0 0 0 0 0 0 0 0 0 0 0 0 0 0 0 0 0 0 0 0 0 0 0 0 0 0 0
0 0 0 0 0 0 0 0 0 0 0 0 0 0 0 0 0 0 0 0 0 0 0 0 0 0 0 0 0 0 0 0 0 0 0 0 0 0 0 0 0 0 0 0 0 0 0 0 0
0 0 0 0 0 0 0 0 0 0 0 0 0 0 0 0 0 0 0 0 0 0 0 0 0 0 0 0 0 0 0 0 0 0 0 0 0 0 0 0 0 0 0 0 0 0 0 0 0
0 0 0 0 0 0 0 0 0 0 0 0 0 0 0 0 0 0 0 0 0 0 0 0 0 0 0 0 0 0 0 0 0 0 0 0 0 0 0 0 0 0 0 0 0 0 0 0 0
0 0 0 0 0 0 0 0 0 0 0 0 0 0 0 0 0 0 0 0 0 0 0 0 0 0 0 0 0 0 0 0 0 0 0 0 0 0 0 0 0 0 0 0 0 0 0 0 0
0 0 0 0 0 0 0 0 0 0 0 0 0 0 0 0 0 0 0 0 0 0 0 0 0 0 0 0 0 0 0 0 0 0 0 0 0 0 0 0 0 0 0 0 0 0 0 0 0
0 0 0 0 0 0 0 0 0 0 0 0 0 0 0 0 0 0 0 0 0 0 0 0 0 0 0 0 0 0 0 0 0 0 0 0 0 0 0 0 0 0 0 0 0 0 0 0 0
0 0 0 0 0 0 0 0 0 0 0 0 0 0 0 0 0 0 0 0 0 0 0 0 0 0 0 0 0 0 0 0 0 0 0 0 0 0 0 0 0 0 0 0 0 0 0 0 0
0 0 0 0 0 0 0 0 0 0 0 0 0 0 0 0 0 0 0 0 0 0 0 0 0 0 0 0 0 0 0 0 0 0 0 0 0 0 0 0 0 0 0 0 0 0 0 0 0
0 0 0 0 0 0 0 0 0 0 0 0 0 0 0 0 0 0 0 -0 -0 0 0 0 0 0 0 0 0 0 0 0 0 0 0 0 0 0 0 0 0 0 0 0 0 0 0 0 0
0 0 0 0 0 0 0 0 0 0 0 0 0 0 0 0 0 -0 -0 -0 -0 -0 0 0 0 0 0 0 0 0 0 0 0 0 0 0 0 0 0 0 0 0 0 0 0 0 0 0 0
Wind_Speed_500mb
15 15 12 9 4 6 8 12 6 8 4 4 4 6 8 9 5 8 9 32 46 62 62 49 50 45 41 36 30 28 24 23 23 23 23 23 22 18 19 22 23 24 24 23 25 25 23 20 24
16 16 13 7 7 5 9 8 14 12 3 12 9 3 6 3 2 1 24 28 40 58 54 53 48 46 42 37 34 29 26 25 29 34 31 29 30 27 24 25 26 25 25 25 25 24 24 21 16
16 22 11 7 8 15 9 10 12 6 10 9 5 6 2 3 3 8 10 33 37 52 52 48 45 43 44 40 37 33 29 26 26 28 34 35 30 27 25 25 25 25 23 22 21 21 24 21 17
15 13 3 5 19 10 11 11 11 3 8 6 6 6 4 3 7 11 11 30 38 42 46 49 40 36 44 40 37 35 31 29 28 28 29 29 28 27 27 27 25 24 21 21 21 23 22 20 8
20 7 4 8 12 9 10 14 9 8 5 7 7 7 6 14 10 11 16 24 28 33 43 43 39 36 43 44 40 37 34 34 32 30 30 29 29 28 27 25 22 20 20 21 23 24 23 13 4
12 5 3 16 13 7 9 17 14 13 16 16 12 11 8 17 18 14 15 22 25 27 31 40 42 38 40 45 43 39 36 36 35 33 31 30 29 27 26 22 20 20 21 27 30 23 10 5 16
10 6 9 8 7 9 13 20 11 16 16 16 16 12 10 30 25 21 19 20 19 26 30 32 40 45 49 50 46 40 37 36 36 34 33 31 28 27 25 22 25 28 28 30 27 12 8 19 23
12 7 7 11 9 18 11 13 10 20 17 13 16 13 14 34 34 28 26 25 16 23 32 35 38 44 50 52 48 43 38 37 37 36 33 31 29 28 29 27 27 28 24 26 19 13 11 24 28
15 3 10 13 13 12 8 7 11 8 8 25 22 20 19 20 39 41 39 35 36 30 33 41 42 42 45 47 46 44 40 40 39 37 33 31 30 29 27 26 24 22 23 22 18 19 25 24 30
13 9 17 13 11 10 8 16 16 10 13 19 26 33 26 33 46 49 49 50 46 45 42 43 42 41 43 47 46 44 43 41 40 37 35 32 29 28 27 26 24 23 23 20 19 28 32 33 32
15 18 10 9 30 15 7 9 14 15 15 27 38 45 41 42 52 53 52 54 56 48 42 44 43 46 46 45 45 44 42 41 41 38 35 32 29 27 27 25 22 23 23 12 26 33 34 39 37
8 26 15 11 28 11 9 9 10 30 42 34 31 37 42 53 59 58 59 59 58 54 49 44 45 45 43 47 47 43 42 42 42 38 36 32 30 28 27 25 24 23 21 24 32 37 37 39 42
11 9 16 52 40 28 18 15 13 43 59 51 43 38 43 52 60 62 61 55 55 57 53 48 44 45 36 48 47 47 46 45 42 40 37 34 32 31 29 27 26 25 25 30 36 34 43 43 40
7 12 18 24 30 21 13 5 10 61 50 51 55 59 56 56 60 62 64 61 60 58 59 55 51 46 45 51 51 49 46 45 44 40 37 35 34 33 31 29 27 27 28 34 39 41 47 46 46
5 8 8 15 13 11 18 7 21 79 50 44 50 61 62 61 60 66 65 65 61 62 64 62 59 52 47 51 52 51 47 46 45 42 40 38 36 35 33 31 29 28 31 38 48 48 50 49 49
6 3 8 6 17 10 23 24 29 39 39 54 60 62 62 62 67 70 69 69 67 66 66 67 66 56 50 49 50 50 49 47 46 44 42 41 40 38 35 34 32 32 34 39 48 51 54 51 50
4 9 15 11 19 9 15 8 20 11 22 45 50 47 49 58 70 76 74 73 72 71 68 69 72 66 55 53 48 53 56 53 49 49 46 45 42 40 37 37 35 35 39 44 47 52 52 54 51
19 12 10 12 10 8 10 22 19 32 16 34 40 42 43 54 69 68 71 72 72 72 72 70 71 69 59 50 45 51 55 57 57 52 50 48 45 43 42 42 40 40 43 47 48 50 54 54 53
8 12 16 7 9 7 16 25 23 33 24 41 64 72 75 83 81 75 69 71 74 75 77 77 74 75 73 67 67 67 70 68 59 58 53 49 47 46 47 45 44 45 45 46 49 53 55 56 53
6 8 13 7 6 9 11 32 20 18 20 49 63 72 89 88 88 81 70 70 76 82 82 80 79 83 80 76 70 68 66 67 64 59 56 52 51 49 50 48 47 46 46 48 52 56 59 55 53
18 29 15 10 3 6 7 22 13 15 29 48 60 83 73 68 75 70 62 62 72 79 85 85 84 86 84 78 69 68 66 71 69 69 62 57 54 52 52 50 49 49 49 50 52 54 56 60 59
24 17 12 7 8 10 1 16 9 12 16 11 41 27 43 44 46 55 59 57 60 72 81 85 83 84 80 79 75 77 78 81 78 69 59 57 55 54 54 53 53 52 51 51 51 53 53 54 57
12 9 14 9 8 4 5 3 8 2 13 27 10 6 9 17 26 25 33 34 41 55 71 79 81 79 77 82 77 76 78 78 72 65 60 59 57 57 58 58 57 56 54 51 52 54 54 53 53
15 12 11 8 6 3 17 14 12 11 19 7 3 12 18 17 19 12 10 17 28 40 56 68 75 77 81 82 80 77 79 81 76 69 66 62 61 61 62 61 60 57 55 56 55 53 54 52 51
5 12 1 3 1 14 3 9 28 13 12 10 7 14 21 22 26 27 16 7 13 27 41 57 69 77 81 83 82 78 79 80 75 69 66 65 67 67 65 63 63 62 59 57 57 57 56 53 49
13 14 10 13 8 6 8 15 14 6 2 17 26 24 24 33 42 40 32 24 13 16 30 43 57 70 78 82 81 79 79 77 74 73 68 66 66 64 62 63 63 61 59 58 57 56 53 49 45
13 14 7 8 2 5 9 13 18 11 7 9 19 23 29 29 27 39 27 20 16 16 23 30 44 58 70 75 79 80 78 76 76 73 70 65 64 63 62 63 62 61 60 58 57 55 53 49 47
5 8 11 1 8 8 9 10 15 8 17 15 13 18 24 19 12 27 16 19 20 19 24 33 40 50 58 67 74 77 76 73 76 73 71 67 62 62 63 62 61 60 59 57 56 55 54 51 50
5 5 1 5 6 11 3 13 13 17 22 21 16 25 24 17 13 18 17 20 23 24 25 30 38 46 53 59 64 71 73 72 74 73 71 66 60 61 62 61 59 59 59 58 57 56 55 53 50
4 10 11 8 11 4 5 15 11 16 23 17 21 22 17 15 16 15 16 19 20 22 22 24 30 37 44 52 58 63 66 69 73 72 69 66 60 60 61 60 59 58 58 58 57 57 54 51 47
Wind_Direction_500mb
214 209 194 173 84 73 244 244 252 267 275 268 239 202 170 124 205 199 181 176 176 184 184 185 189 191 190 195 202 203 205 213 227 232 222 221 232 250 244 238 234 238 245 255 268 276 291 293 287
197 198 198 158 128 207 253 239 250 234 246 126 100 23 4 128 164 223 155 167 177 188 186 192 193 195 198 200 208 213 218 225 233 239 236 239 250 255 247 241 237 237 246 257 267 284 285 279 279
192 184 180 159 187 218 215 214 237 297 188 177 139 61 143 240 246 183 189 178 173 193 197 199 200 198 203 205 212 219 227 236 241 238 239 243 245 247 245 242 247 251 255 263 265 263 270 275 275
181 183 193 168 230 251 205 258 254 186 191 188 195 97 147 235 158 208 192 187 191 198 204 211 205 199 210 211 219 226 233 242 240 235 233 232 232 234 236 241 241 251 257 255 261 264 270 279 323
190 191 208 244 252 245 234 232 251 160 177 148 176 205 198 166 177 206 214 201 201 207 211 208 200 203 214 218 223 232 239 241 238 234 233 232 233 233 238 242 246 244 247 253 257 263 277 277 242
196 201 190 236 250 252 255 229 174 182 172 163 153 164 223 187 197 198 214 208 203 218 220 213 208 206 211 224 228 233 238 243 239 235 233 233 236 236 235 236 242 249 256 259 267 272 262 180 113
177 132 225 223 247 272 224 211 194 206 178 205 176 151 219 195 195 201 206 210 209 222 226 228 226 223 224 224 227 229 235 242 242 236 232 233 235 235 236 237 249 256 257 264 271 248 189 139 134
211 137 240 223 199 265 227 188 221 198 220 187 189 205 234 219 202 201 203 216 220 242 237 236 238 235 238 233 228 230 235 242 242 240 234 230 229 237 247 248 252 258 264 265 239 219 170 141 151
194 175 231 208 181 233 168 184 200 203 206 200 209 235 245 206 200 197 202 207 213 221 262 249 241 239 238 230 229 231 235 238 240 239 234 233 237 239 240 241 246 253 249 249 234 177 142 139 152
180 187 224 203 206 220 211 194 198 169 202 227 230 228 227 202 201 208 218 223 223 229 235 247 244 241 234 230 228 229 233 236 238 235 235 236 234 234 236 244 247 230 230 229 191 156 142 141 152
198 227 199 235 232 239 231 204 199 156 237 217 222 237 226 216 213 221 231 237 239 234 224 231 233 237 232 232 232 231 231 232 233 231 230 231 232 233 234 232 227 223 232 206 160 148 146 151 155
213 239 205 239 236 218 214 190 199 204 232 238 251 258 247 226 225 230 234 235 232 232 231 227 226 225 228 232 232 233 233 232 232 230 230 229 231 228 224 220 216 214 200 180 166 160 152 158 162
223 238 232 241 245 234 227 210 211 244 242 245 258 262 248 239 239 237 238 237 236 234 230 224 219 222 233 236 235 232 231 233 232 229 228 226 227 226 226 222 219 214 201 182 178 164 157 163 167
238 235 244 241 238 221 195 230 194 256 260 252 253 256 254 247 245 238 235 235 237 236 233 227 221 225 231 237 237 238 234 230 231 229 228 227 225 228 229 226 221 211 196 181 182 164 160 165 171
236 276 289 235 214 222 190 250 229 256 263 258 251 253 249 246 240 241 245 242 241 239 236 232 226 226 232 244 232 237 236 233 232 230 228 225 226 227 228 228 221 209 195 182 179 175 172 171 171
190 145 251 239 166 219 155 256 257 260 260 259 258 252 248 247 249 251 248 247 244 242 241 236 235 227 230 232 237 242 239 234 233 231 228 227 226 225 226 226 218 205 193 184 182 185 180 178 182
254 224 222 311 192 128 185 244 257 259 239 258 261 259 254 254 253 253 251 248 245 243 244 240 234 237 230 232 225 235 238 236 235 232 228 226 226 225 225 223 216 205 195 188 187 187 190 180 182
212 214 240 208 206 157 219 253 283 266 252 256 267 267 266 264 260 257 255 249 243 242 244 244 239 230 229 229 240 243 238 235 232 230 228 226 225 225 223 218 214 207 199 194 192 194 191 195 197
186 205 201 224 203 162 225 251 244 258 254 257 261 265 267 265 266 262 257 251 245 241 241 239 233 227 232 231 227 221 232 232 231 229 225 225 224 223 221 218 215 211 206 201 196 195 198 197 201
180 187 232 277 218 186 278 266 235 246 245 243 250 258 263 264 268 268 263 254 246 242 241 236 233 230 233 241 233 231 227 229 232 230 226 224 223 221 220 217 215 212 204 201 200 201 194 198 194
223 228 231 220 64 235 305 278 234 263 252 260 255 258 264 266 274 275 266 255 245 238 237 237 234 234 236 233 230 230 226 228 225 224 223 222 221 219 219 216 214 211 208 205 203 203 205 196 190
229 192 171 175 122 236 195 284 278 234 255 271 264 280 278 282 278 268 259 248 241 239 236 236 237 238 235 226 229 231 230 228 227 227 226 224 222 219 218 216 214 213 212 210 210 207 208 207 198
233 134 166 150 164 41 228 260 260 137 259 255 341 339 324 321 316 290 260 257 251 241 236 235 235 235 232 228 229 233 232 232 234 231 226 226 223 221 219 217 215 213 213 212 214 210 207 207 208
151 85 66 68 119 305 187 168 248 193 219 121 96 347 342 330 324 312 270 248 247 243 239 236 235 233 229 229 230 235 236 235 232 228 226 225 224 222 220 218 215 215 214 213 213 212 211 210 212
165 127 161 311 19 229 236 179 247 269 223 183 116 69 53 61 59 56 40 349 265 250 245 239 236 234 230 231 232 236 237 238 237 235 231 228 225 222 221 219 216 214 214 214 214 214 215 216 219
188 168 160 206 210 220 118 225 249 249 222 153 141 107 92 73 68 53 39 27 345 287 259 248 243 240 236 235 235 236 238 239 237 236 234 233 232 230 226 222 218 216 215 215 216 216 219 221 225
176 208 131 122 13 49 212 278 296 189 110 115 146 110 89 81 69 25 22 20 359 307 277 267 254 247 243 240 238 237 238 239 239 236 234 233 233 231 227 224 221 218 217 217 218 219 222 224 226
158 165 162 272 161 223 254 269 233 172 175 171 165 118 98 92 58 0 356 349 335 312 282 263 258 253 250 245 241 240 240 240 240 237 234 232 231 230 226 224 221 220 218 218 218 220 222 224 225
157 185 245 151 171 190 240 255 229 182 169 166 165 126 95 9 346 346 339 321 315 312 296 274 261 256 250 247 244 243 241 240 241 239 234 232 232 229 226 225 222 219 218 217 218 220 222 222 221
325 209 170 157 204 222 157 262 330 163 157 147 141 109 7 7 358 350 332 302 288 292 292 285 274 261 257 251 247 243 242 242 240 239 234 231 229 227 226 223 221 219 217 217 217 217 217 218 218
Wind_Speed_850mb
15 15 12 9 4 6 8 12 6 8 4 4 4 6 8 9 5 8 9 32 46 62 62 49 50 45 41 36 30 28 24 23 23 23 23 23 22 18 19 22 23 24 24 23 25 25 23 20 24
16 16 13 7 7 5 9 8 14 12 3 12 9 3 6 3 2 1 24 28 40 58 54 53 48 46 42 37 34 29 26 25 29 34 31 29 30 27 24 25 26 25 25 25 25 24 24 21 16
16 22 11 7 8 15 9 10 12 6 10 9 5 6 2 3 3 8 10 33 37 52 52 48 45 43 44 40 37 33 29 26 26 28 34 35 30 27 25 25 25 25 23 22 21 21 24 21 17
15 13 3 5 19 10 11 11 11 3 8 6 6 6 4 3 7 11 11 30 38 42 46 49 40 36 44 40 37 35 31 29 28 28 29 29 28 27 27 27 25 24 21 21 21 23 22 20 8
20 7 4 8 12 9 10 14 9 8 5 7 7 7 6 14 10 11 16 24 28 33 43 43 39 36 43 44 40 37 34 34 32 30 30 29 29 28 27 25 22 20 20 21 23 24 23 13 4
12 5 3 16 13 7 9 17 14 13 16 16 12 11 8 17 18 14 15 22 25 27 31 40 42 38 40 45 43 39 36 36 35 33 31 30 29 27 26 22 20 20 21 27 30 23 10 5 16
10 6 9 8 7 9 13 20 11 16 16 16 16 12 10 30 25 21 19 20 19 26 30 32 40 45 49 50 46 40 37 36 36 34 33 31 28 27 25 22 25 28 28 30 27 12 8 19 23
12 7 7 11 9 18 11 13 10 20 17 13 16 13 14 34 34 28 26 25 16 23 32 35 38 44 50 52 48 43 38 37 37 36 33 31 29 28 29 27 27 28 24 26 19 13 11 24 28
15 3 10 13 13 12 8 7 11 8 8 25 22 20 19 20 39 41 39 35 36 30 33 41 42 42 45 47 46 44 40 40 39 37 33 31 30 29 27 26 24 22 23 22 18 19 25 24 30
13 9 17 13 11 10 8 16 16 10 13 19 26 33 26 33 46 49 49 50 46 45 42 43 42 41 43 47 46 44 43 41 40 37 35 32 29 28 27 26 24 23 23 20 19 28 32 33 32
15 18 10 9 30 15 7 9 14 15 15 27 38 45 41 42 52 53 52 54 56 48 42 44 43 46 46 45 45 44 42 41 41 38 35 32 29 27 27 25 22 23 23 12 26 33 34 39 37
8 26 15 11 28 11 9 9 10 30 42 34 31 37 42 53 59 58 59 59 58 54 49 44 45 45 43 47 47 43 42 42 42 38 36 32 30 28 27 25 24 23 21 24 32 37 37 39 42
11 9 16 52 40 28 18 15 13 43 59 51 43 38 43 52 60 62 61 55 55 57 53 48 44 45 36 48 47 47 46 45 42 40 37 34 32 31 29 27 26 25 25 30 36 34 43 43 40
7 12 18 24 30 21 13 5 10 61 50 51 55 59 56 56 60 62 64 61 60 58 59 55 51 46 45 51 51 49 46 45 44 40 37 35 34 33 31 29 27 27 28 34 39 41 47 46 46
5 8 8 15 13 11 18 7 21 79 50 44 50 61 62 61 60 66 65 65 61 62 64 62 59 52 47 51 52 51 47 46 45 42 40 38 36 35 33 31 29 28 31 38 48 48 50 49 49
6 3 8 6 17 10 23 24 29 39 39 54 60 62 62 62 67 70 69 69 67 66 66 67 66 56 50 49 50 50 49 47 46 44 42 41 40 38 35 34 32 32 34 39 48 51 54 51 50
4 9 15 11 19 9 15 8 20 11 22 45 50 47 49 58 70 76 74 73 72 71 68 69 72 66 55 53 48 53 56 53 49 49 46 45 42 40 37 37 35 35 39 44 47 52 52 54 51
19 12 10 12 10 8 10 22 19 32 16 34 40 42 43 54 69 68 71 72 72 72 72 70 71 69 59 50 45 51 55 57 57 52 50 48 45 43 42 42 40 40 43 47 48 50 54 54 53
8 12 16 7 9 7 16 25 23 33 24 41 64 72 75 83 81 75 69 71 74 75 77 77 74 75 73 67 67 67 70 68 59 58 53 49 47 46 47 45 44 45 45 46 49 53 55 56 53
6 8 13 7 6 9 11 32 20 18 20 49 63 72 89 88 88 81 70 70 76 82 82 80 79 83 80 76 70 68 66 67 64 59 56 52 51 49 50 48 47 46 46 48 52 56 59 55 53
18 29 15 10 3 6 7 22 13 15 29 48 60 83 73 68 75 70 62 62 72 79 85 85 84 86 84 78 69 68 66 71 69 69 62 57 54 52 52 50 49 49 49 50 52 54 56 60 59
24 17 12 7 8 10 1 16 9 12 16 11 41 27 43 44 46 55 59 57 60 72 81 85 83 84 80 79 75 77 78 81 78 69 59 57 55 54 54 53 53 52 51 51 51 53 53 54 57
12 9 14 9 8 4 5 3 8 2 13 27 10 6 9 17 26 25 33 34 41 55 71 79 81 79 77 82 77 76 78 78 72 65 60 59 57 57 58 58 57 56 54 51 52 54 54 53 53
15 12 11 8 6 3 17 14 12 11 19 7 3 12 18 17 19 12 10 17 28 40 56 68 75 77 81 82 80 77 79 81 76 69 66 62 61 61 62 61 60 57 55 56 55 53 54 52 51
5 12 1 3 1 14 3 9 28 13 12 10 7 14 21 22 26 27 16 7 13 27 41 57 69 77 81 83 82 78 79 80 75 69 66 65 67 67 65 63 63 62 59 57 57 57 56 53 49
13 14 10 13 8 6 8 15 14 6 2 17 26 24 24 33 42 40 32 24 13 16 30 43 57 70 78 82 81 79 79 77 74 73 68 66 66 64 62 63 63 61 59 58 57 56 53 49 45
13 14 7 8 2 5 9 13 18 11 7 9 19 23 29 29 27 39 27 20 16 16 23 30 44 58 70 75 79 80 78 76 76 73 70 65 64 63 62 63 62 61 60 58 57 55 53 49 47
5 8 11 1 8 8 9 10 15 8 17 15 13 18 24 19 12 27 16 19 20 19 24 33 40 50 58 67 74 77 76 73 76 73 71 67 62 62 63 62 61 60 59 57 56 55 54 51 50
5 5 1 5 6 11 3 13 13 17 22 21 16 25 24 17 13 18 17 20 23 24 25 30 38 46 53 59 64 71 73 72 74 73 71 66 60 61 62 61 59 59 59 58 57 56 55 53 50
4 10 11 8 11 4 5 15 11 16 23 17 21 22 17 15 16 15 16 19 20 22 22 24 30 37 44 52 58 63 66 69 73 72 69 66 60 60 61 60 59 58 58 58 57 57 54 51 47
Wind_Direction_850mb
214 209 194 173 84 73 244 244 252 267 275 268 239 202 170 124 205 199 181 176 176 184 184 185 189 191 190 195 202 203 205 213 227 232 222 221 232 250 244 238 234 238 245 255 268 276 291 293 287
197 198 198 158 128 207 253 239 250 234 246 126 100 23 4 128 164 223 155 167 177 188 186 192 193 195 198 200 208 213 218 225 233 239 236 239 250 255 247 241 237 237 246 257 267 284 285 279 279
192 184 180 159 187 218 215 214 237 297 188 177 139 61 143 240 246 183 189 178 173 193 197 199 200 198 203 205 212 219 227 236 241 238 239 243 245 247 245 242 247 251 255 263 265 263 270 275 275
181 183 193 168 230 251 205 258 254 186 191 188 195 97 147 235 158 208 192 187 191 198 204 211 205 199 210 211 219 226 233 242 240 235 233 232 232 234 236 241 241 251 257 255 261 264 270 279 323
190 191 208 244 252 245 234 232 251 160 177 148 176 205 198 166 177 206 214 201 201 207 211 208 200 203 214 218 223 232 239 241 238 234 233 232 233 233 238 242 246 244 247 253 257 263 277 277 242
196 201 190 236 250 252 255 229 174 182 172 163 153 164 223 187 197 198 214 208 203 218 220 213 208 206 211 224 228 233 238 243 239 235 233 233 236 236 235 236 242 249 256 259 267 272 262 180 113
177 132 225 223 247 272 224 211 194 206 178 205 176 151 219 195 195 201 206 210 209 222 226 228 226 223 224 224 227 229 235 242 242 236 232 233 235 235 236 237 249 256 257 264 271 248 189 139 134
211 137 240 223 199 265 227 188 221 198 220 187 189 205 234 219 202 201 203 216 220 242 237 236 238 235 238 233 228 230 235 242 242 240 234 230 229 237 247 248 252 258 264 265 239 219 170 141 151
194 175 231 208 181 233 168 184 200 203 206 200 209 235 245 206 200 197 202 207 213 221 262 249 241 239 238 230 229 231 235 238 240 239 234 233 237 239 240 241 246 253 249 249 234 177 142 139 152
180 187 224 203 206 220 211 194 198 169 202 227 230 228 227 202 201 208 218 223 223 229 235 247 244 241 234 230 228 229 233 236 238 235 235 236 234 234 236 244 247 230 230 229 191 156 142 141 152
198 227 199 235 232 239 231 204 199 156 237 217 222 237 226 216 213 221 231 237 239 234 224 231 233 237 232 232 232 231 231 232 233 231 230 231 232 233 234 232 227 223 232 206 160 148 146 151 155
213 239 205 239 236 218 214 190 199 204 232 238 251 258 247 226 225 230 234 235 232 232 231 227 226 225 228 232 232 233 233 232 232 230 230 229 231 228 224 220 216 214 200 180 166 160 152 158 162
223 238 232 241 245 234 227 210 211 244 242 245 258 262 248 239 239 237 238 237 236 234 230 224 219 222 233 236 235 232 231 233 232 229 228 226 227 226 226 222 219 214 201 182 178 164 157 163 167
238 235 244 241 238 221 195 230 194 256 260 252 253 256 254 247 245 238 235 235 237 236 233 227 221 225 231 237 237 238 234 230 231 229 228 227 225 228 229 226 221 211 196 181 182 164 160 165 171
236 276 289 235 214 222 190 250 229 256 263 258 251 253 249 246 240 241 245 242 241 239 236 232 226 226 232 244 232 237 236 233 232 230 228 225 226 227 228 228 221 209 195 182 179 175 172 171 171
190 145 251 239 166 219 155 256 257 260 260 259 258 252 248 247 249 251 248 247 244 242 241 236 235 227 230 232 237 242 239 234 233 231 228 227 226 225 226 226 218 205 193 184 182 185 180 178 182
254 224 222 311 192 128 185 244 257 259 239 258 261 259 254 254 253 253 251 248 245 243 244 240 234 237 230 232 225 235 238 236 235 232 228 226 226 225 225 223 216 205 195 188 187 187 190 180 182
212 214 240 208 206 157 219 253 283 266 252 256 267 267 266 264 260 257 255 249 243 242 244 244 239 230 229 229 240 243 238 235 232 230 228 226 225 225 223 218 214 207 199 194 192 194 191 195 197
186 205 201 224 203 162 225 251 244 258 254 257 261 265 267 265 266 262 257 251 245 241 241 239 233 227 232 231 227 221 232 232 231 229 225 225 224 223 221 218 215 211 206 201 196 195 198 197 201
180 187 232 277 218 186 278 266 235 246 245 243 250 258 263 264 268 268 263 254 246 242 241 236 233 230 233 241 233 231 227 229 232 230 226 224 223 221 220 217 215 212 204 201 200 201 194 198 194
223 228 231 220 64 235 305 278 234 263 252 260 255 258 264 266 274 275 266 255 245 238 237 237 234 234 236 233 230 230 226 228 225 224 223 222 221 219 219 216 214 211 208 205 203 203 205 196 190
229 192 171 175 122 236 195 284 278 234 255 271 264 280 278 282 278 268 259 248 241 239 236 236 237 238 235 226 229 231 230 228 227 227 226 224 222 219 218 216 214 213 212 210 210 207 208 207 198
233 134 166 150 164 41 228 260 260 137 259 255 341 339 324 321 316 290 260 257 251 241 236 235 235 235 232 228 229 233 232 232 234 231 226 226 223 221 219 217 215 213 213 212 214 210 207 207 208
151 85 66 68 119 305 187 168 248 193 219 121 96 347 342 330 324 312 270 248 247 243 239 236 235 233 229 229 230 235 236 235 232 228 226 225 224 222 220 218 215 215 214 213 213 212 211 210 212
165 127 161 311 19 229 236 179 247 269 223 183 116 69 53 61 59 56 40 349 265 250 245 239 236 234 230 231 232 236 237 238 237 235 231 228 225 222 221 219 216 214 214 214 214 214 215 216 219
188 168 160 206 210 220 118 225 249 249 222 153 141 107 92 73 68 53 39 27 345 287 259 248 243 240 236 235 235 236 238 239 237 236 234 233 232 230 226 222 218 216 215 215 216 216 219 221 225
176 208 131 122 13 49 212 278 296 189 110 115 146 110 89 81 69 25 22 20 359 307 277 267 254 247 243 240 238 237 238 239 239 236 234 233 233 231 227 224 221 218 217 217 218 219 222 224 226
158 165 162 272 161 223 254 269 233 172 175 171 165 118 98 92 58 0 356 349 335 312 282 263 258 253 250 245 241 240 240 240 240 237 234 232 231 230 226 224 221 220 218 218 218 220 222 224 225
157 185 245 151 171 190 240 255 229 182 169 166 165 126 95 9 346 346 339 321 315 312 296 274 261 256 250 247 244 243 241 240 241 239 234 232 232 229 226 225 222 219 218 217 218 220 222 222 221
325 209 170 157 204 222 157 262 330 163 157 147 141 109 7 7 358 350 332 302 288 292 292 285 274 261 257 251 247 243 242 242 240 239 234 231 229 227 226 223 221 219 217 217 217 217 217 218 218